Regional Weather Roundup
Issued by NWS

Home | Current Version | Previous Version | Graphics & Text | Print | Product List | Glossary On
Versions: 1 2 3 4 5 6 7 8 9 10 11 12 13 14 15 16 17 18 19 20 21 22 23 24 25 26 27 28 29 30 31 32 33 34 35 36 37 38 39 40 41 42 43 44 45 46 47 48 49 50
000
ASUS43 KLOT 201003
RWRIL

ILLINOIS REGIONAL WEATHER ROUNDUP
NATIONAL WEATHER SERVICE CHICAGO/ROMEOVILLE IL
400 AM CST MON NOV 20 2017

NOTE: "FAIR" INDICATES FEW OR NO CLOUDS BELOW 12,000 FEET WITH NO
SIGNIFICANT WEATHER AND/OR OBSTRUCTIONS TO VISIBILITY.

* THESE STATIONS ARE NOT UNDER NWS QUALITY CONTROL. THEY ALSO MAY NOT
  REPORT WEATHER SUCH AS PRECIPITATION OR FOG.

ILZ001-002-007-009-015-016-024-201100-
NORTHWEST ILLINOIS

CITY           SKY/WX    TMP DP  RH WIND       PRES   REMARKS
MOLINE         CLOUDY    34  24  67 S5        29.95F WCI  30
STERLING*        N/A     32  25  75 VRB3        N/A
SAVANNA*       CLOUDY    30  25  84 SE7       29.94S WCI  23
$$

ILZ003-004-008-010-011-017-018-201100-
NORTH CENTRAL ILLINOIS

CITY           SKY/WX    TMP DP  RH WIND       PRES   REMARKS
ROCKFORD       CLOUDY    30  24  78 S8        29.97F WCI  22
FREEPORT*      CLOUDY    31  25  77 S12G17    29.94F WCI  22
ROCHELLE*      CLOUDY    30  26  85 S7        29.97F WCI  23
DE KALB*       CLOUDY    27  24  87 S12       29.97F WCI  17
PERU*          CLOUDY    33  24  69 SW13      29.99F WCI  23
$$

ILZ005-006-012>014-019>023-201100-
NORTHEAST ILLINOIS

CITY           SKY/WX    TMP DP  RH WIND       PRES   REMARKS
CHICAGO-OHARE  PTCLDY    33  22  63 SW12      29.97F WCI  24
CHICAGO-MIDWAY PTCLDY    33  23  66 SW12      30.00F WCI  24
AURORA         CLOUDY    29  24  82 S8        29.99F WCI  21
LANSING*       CLOUDY    30  25  83 SW7       30.03F WCI  23
WAUKEGAN       CLEAR     30  23  75 SW12      29.95F WCI  20
DUPAGE AIRPORT CLOUDY    28  24  85 S10       29.97F WCI  19
KANKAKEE*      CLOUDY    31  24  76 S7        30.06F WCI  24
WHEELING       CLEAR     33  24  69 S7        29.99F WCI  27
MORRIS*        CLOUDY    33  25  71 SW12      30.00F WCI  24
ROMEOVILLE*    CLOUDY    32  25  77 S8        30.01F WCI  24
NORTHERLY ISL    N/A     33  22  64 S5          N/A  WCI  29
$$

LMZ740>746-201100-
SOUTHERN LAKE MICHIGAN

STATION/POSITION SKY/WX   TEMP    WIND        PRES    VSBY  WAVE
                          AIR SEA DIR/SP/G                  HT/PER
                          (F)     (DEG/KT/KT) (MB)    (MI)  (FT/S)
SOUTHERN BUOY              41 49  270/ 23/ 27 1014.5          6/ 6
HARRISON CRIB              38     220/ 20/ 22   N/A
BURNHAM HARBOR             33     230/  6/  9   N/A
CALUMET HARBOR             33     210/  9/ 14 1015.7F
BURNS HARBOR               32     200/ 13/ 16 1016.9F
MICHIGAN CITY              34     190/ 15/ 18   N/A
$$

ILZ025>027-034>036-040-047-049-050-058-095>099-201100-
WEST-CENTRAL ILLINOIS

CITY           SKY/WX    TMP DP  RH WIND       PRES   REMARKS
QUINCY         CLOUDY    36  27  69 S13       30.01F WCI  27
GALESBURG*     CLOUDY    33  27  81 S9        29.99F WCI  25
MACOMB*        CLOUDY    35  27  74 S8        30.02S WCI  28
JACKSONVILLE*  CLOUDY    35  24  65 S13       30.05F WCI  26
PITTSFIELD*    CLOUDY    37  26  66 S9        30.05F WCI  30
$$

ILZ028>032-037-038-041>044-048-051>054-059>061-201100-
CENTRAL ILLINOIS

CITY           SKY/WX    TMP DP  RH WIND       PRES   REMARKS
PONTIAC        CLOUDY    33  26  76 S13       30.04F WCI  24
BLOOMINGTON    CLOUDY    31  24  75 S14       30.06F WCI  21
DECATUR        CLEAR     32  23  69 S13       30.10F WCI  22
PEORIA         CLOUDY    31  24  75 S8        30.03F WCI  23
LACON*         CLEAR     34  24  66 SW8       30.01F WCI  28
LINCOLN*       CLOUDY    32  26  76 S10       30.06F WCI  24
SPRINGFIELD    CLOUDY    35  24  64 S13       30.07F WCI  26
TAYLORVILLE    CLEAR     31  23  71 S13       30.10S WCI  22
$$

ILZ033-039-045-046-055>057-062-063-201100-
EAST-CENTRAL ILLINOIS

CITY           SKY/WX    TMP DP  RH WIND       PRES   REMARKS
CHAMPAIGN      CLEAR     30  24  78 S10       30.10F WCI  21
DANVILLE*      CLOUDY    30  23  76 SW9       30.08S WCI  21
RANTOUL*       CLOUDY    34  26  72 SW6       30.09F WCI  29
MATTOON        CLEAR     31  23  72 S10       30.12S WCI  22
PARIS*         CLEAR     31  24  77 S9        30.14S WCI  22
$$

ILZ079-100>102-201100-
SOUTHWEST ILLINOIS

CITY           SKY/WX    TMP DP  RH WIND       PRES   REMARKS
ALTON          CLOUDY    33  24  70 S13       30.12F WCI  23
BELLEVILLE     CLOUDY    30  21  70 S5        30.14F WCI  25
CAHOKIA*       CLOUDY    25  21  85 CALM      30.14F
SPARTA*        CLOUDY    33  21  61 S8        30.18F WCI  26
$$

ILZ064>066-069>071-074>076-080>082-084>086-088>090-092>094-201100-
SOUTH-CENTRAL ILLINOIS

CITY           SKY/WX    TMP DP  RH WIND       PRES   REMARKS
CARBONDALE     CLOUDY    23  22  96 CALM      30.20F
CAIRO*         PTCLDY    26  26  96 CALM      30.22F
EFFINGHAM*     CLEAR     31  22  70 S6        30.18S WCI  25
MARION         CLEAR     28  23  80 S6        30.21F WCI  22
MT. VERNON     CLEAR     23  21  92 CALM      30.19F
CENTRALIA*     CLEAR     32  24  73 S7        30.16F WCI  26
SALEM*         CLEAR     32  22  65 S7        30.16F WCI  26
METROPOLIS*    CLOUDY    25  23  93 CALM      30.24S
$$

ILZ067-068-072-073-078-083-087-091-201100-
SOUTHEAST ILLINOIS

CITY           SKY/WX    TMP DP  RH WIND       PRES   REMARKS
LAWRENCEVILLE  CLEAR     27  23  85 S6        30.20R WCI  20
FLORA*         CLEAR     30  24  77 S8        30.15F WCI  23
FAIRFIELD*     CLEAR     28  22  79 CALM      30.19S
HARRISBURG*    CLOUDY    24  23  96 CALM      30.22S
ROBINSON*      CLEAR     27  22  82 S7        30.19S WCI  19
$$

ABBREVIATIONS USED IN REMARKS
   TC - TEMPERATURE IN CELSIUS
  WCI - WIND CHILL INDEX
   HX - HEAT INDEX
  VSB - VISIBILITY
$$





USA.gov is the U.S. government's official web portal to all federal, state and local government web resources and services.